Location: Newark
(54.6833°N, 25.2833°E)
Time: 02:54:44
(UTC+00:00)

A-11 Canister half - Pass Details

Date: 29 January 2021
Orbit: 1525 x 1684 km, 47.3° (Epoch: 05 March)

Event Time Altitude Azimuth Distance (km) Brightness Sun altitude
Rises 18:55:23 0° 283° (WNW) 4,756 12.6 -34.8°
Reaches altitude 10° 19:00:01 10° 264° (W) 3,798 11.7 -35.4°
Maximum altitude 19:05:11 16° 231° (SW) 3,370 11.0 -36.1°
Drops below altitude 10° 19:10:26 10° 198° (SSW) 3,859 11.0 -36.8°
Enters shadow 19:11:42 - 191° (SSW) 4,090 11.1 -37.0°
